Location: Ridgway Nature & Science Center
(38.1460°N, 107.7553°W)
Time: 23:01:48
(UTC-06:00)

Hubble Space Telescope - Visible Passes

Search period start: 25 October 2021 00:00
Search period end: 04 November 2021 00:00
Orbit: 535 x 539 km, 28.5° (Epoch: 25 October)

Date Brightness Start Highest point End Pass type
(mag) Time Alt. Az. Time Alt. Az. Time Alt. Az.
28 Oct 3.6 20:41:54 10° SSW 20:42:05 11° SSW 20:42:05 11° SSW visible
29 Oct 3.2 20:30:33 10° SW 20:31:40 15° SSW 20:31:40 15° SSW visible
30 Oct 3.2 18:40:20 10° S 18:41:48 12° SSE 18:43:17 10° SE visible
30 Oct 2.9 20:19:15 10° SW 20:21:13 18° SSW 20:21:13 18° SSW visible
31 Oct 2.6 20:08:00 10° SW 20:10:45 20° S 20:10:45 20° S visible
01 Nov 2.5 19:56:48 10° SW 19:59:55 21° S 20:00:17 21° S visible
02 Nov 2.6 19:45:37 10° SW 19:48:43 21° S 19:49:50 19° SSE visible
03 Nov 2.7 19:34:29 10° SW 19:37:32 20° S 19:39:24 15° SSE visible
